Angleton, TX

11:15 AM CDT on August 23, 2019 (GMT -0500)
Brazoria County

Weather History for KLBX - June, 2019

Change the Weather History Date:

Thursday, June 13, 2019

  Actual Average Record
Temperature  
Mean Temperature 80 °F -  
Max Temperature 91 °F 86 °F 99 °F (2006)
Min Temperature 71 °F 71 °F 69 °F (1998)
Cooling Degree Days 16    
Growing Degree Days 30 (Base 50)    
Moisture  
Dew Point 70 °F    
Average Humidity 74    
Maximum Humidity 93    
Minimum Humidity 46    
Precipitation  
Precipitation 0.00 in - - ()
Sea Level Pressure  
Sea Level Pressure 30.03 in    
Wind  
Wind Speed 2 mph (South)    
Max Wind Speed 10 mph    
Max Gust Speed -    
Visibility 9 miles    
Events      
Averages and records for this station are not official NWS values.
T = Trace of Precipitation, MM = Missing Value Source: NWS Daily Summary

Daily Weather History Graph

Daily Weather History Graph

Search for Another Location

Airport or City:

Astronomy

Jun. 13, 2019 Rise Set
Actual Time 6:22 AM CDT 8:21 PM CDT
Civil Twilight 5:55 AM CDT 8:48 PM CDT
Nautical Twilight 5:22 AM CDT 9:21 PM CDT
Astronomical Twilight 4:47 AM CDT 9:56 PM CDT
Moon 4:55 PM CDT (6/13) 3:47 AM CDT (6/13)
Length of Visible Light 14h 53m
Length of Day
13h 59m
Waxing Gibbous, 85% of the Moon is Illuminated
Jun 13
Waxing Gibbous
Jun 17
Full
Jun 25
Last Quarter
Jul 2
New
Jul 9
First Quarter

Hourly Weather History & Observations

Time (CDT) Temp. Heat Index Dew Point Humidity Pressure Visibility Wind Dir Wind Speed Gust Speed Precip Events Conditions
12:53 AM 73.0 °F - 71.1 °F 93% 30.02 in 7.0 mi Calm Calm - N/A   Clear
1:53 AM 73.0 °F - 71.1 °F 93% 30.01 in 7.0 mi Calm Calm - N/A   Clear
2:53 AM 72.0 °F - 70.0 °F 93% 30.01 in 5.0 mi Calm Calm - N/A   Clear
3:53 AM 72.0 °F - 70.0 °F 93% 30.01 in 9.0 mi Calm Calm - N/A   Clear
4:53 AM 71.1 °F - 69.1 °F 93% 30.01 in 6.0 mi Calm Calm - N/A   Clear
5:53 AM 71.1 °F - 69.1 °F 93% 30.03 in 6.0 mi Calm Calm - N/A   Clear
6:53 AM 72.0 °F - 70.0 °F 93% 30.04 in 4.0 mi Calm Calm - N/A   Clear
7:53 AM 75.9 °F - 73.0 °F 91% 30.04 in 10.0 mi Calm Calm - N/A   Clear
8:53 AM 79.0 °F - 72.0 °F 79% 30.06 in 10.0 mi West 3.5 mph - N/A   Clear
9:53 AM 82.0 °F 86.3 °F 71.1 °F 69% 30.07 in 10.0 mi Calm Calm - N/A   Clear
10:53 AM 84.0 °F 88.4 °F 70.0 °F 63% 30.08 in 10.0 mi WSW 3.5 mph - N/A   Clear
11:53 AM 87.1 °F 89.9 °F 66.9 °F 51% 30.08 in 10.0 mi NW 4.6 mph - N/A   Partly Cloudy
12:53 PM 88.0 °F 91.4 °F 68.0 °F 51% 30.07 in 8.0 mi NW 5.8 mph - N/A   Scattered Clouds
1:53 PM 89.1 °F 92.1 °F 66.9 °F 48% 30.05 in 10.0 mi Calm Calm - N/A   Partly Cloudy
2:53 PM 90.0 °F 92.8 °F 66.9 °F 46% 30.04 in 10.0 mi ENE 4.6 mph - N/A   Overcast
3:53 PM 87.1 °F 92.8 °F 71.1 °F 59% 30.02 in 10.0 mi SSE 8.1 mph - N/A   Overcast
4:53 PM 88.0 °F 95.6 °F 73.0 °F 61% 30.02 in 10.0 mi ESE 8.1 mph - N/A   Scattered Clouds
5:53 PM 84.9 °F 90.7 °F 72.0 °F 65% 30.01 in 10.0 mi SSE 10.4 mph - N/A   Clear
6:53 PM 84.9 °F 89.4 °F 70.0 °F 61% 30.01 in 10.0 mi SSE 9.2 mph - N/A   Partly Cloudy
7:53 PM 82.9 °F 86.5 °F 69.1 °F 63% 30.01 in 10.0 mi SSE 6.9 mph - N/A   Scattered Clouds
8:53 PM 80.1 °F 82.7 °F 68.0 °F 67% 30.01 in 10.0 mi SSE 4.6 mph - N/A   Partly Cloudy
9:53 PM 77.0 °F - 70.0 °F 79% 30.02 in 10.0 mi Calm Calm - N/A   Clear
10:53 PM 78.1 °F - 71.1 °F 79% 30.03 in 10.0 mi Calm Calm - N/A   Overcast
11:53 PM 77.0 °F - 71.1 °F 82% 30.04 in 10.0 mi Calm Calm - N/A   Mostly Cloudy